Satellite: NOAA-17
Catalog number: 27453
Epoch time:      05040.72769011
Element set:    0248
Inclination:      098.6743 deg
RA of node:       116.1109 deg
Eccentricity:    0.0012479
Arg of perigee:   069.3671 deg
Mean anomaly:     290.8909 deg
Mean motion:   14.23629510 rev/day
Decay rate:       1.66e-06 rev/day^2
Epoch rev:           13670
Checksum:              306

/EX
SB KEPS @ AMSAT  $ORB05041.M
Orbital Elements  05041.MISC

HR AMSAT ORBITAL ELEMENTS FOR MANNED AND MISCELLANEOUS SATELLITES
FROM WA5QGD FORT WORTH,TX February 10, 2005
SEND SUBSCRIBE/UNSUBSCRIBE TO majordomo@amsat.org ONLY
BID: ORB05041.M
TO ALL RADIO AMATEURS BT

Satellite: HUBBLE
Catalog number: 20580
Epoch time:      05040.34754046
Element set:    0276
Inclination:      028.4688 deg
RA of node:       021.6670 deg
Eccentricity:    0.0003562
Arg of perigee:   359.0241 deg
Mean anomaly:     001.0341 deg
Mean motion:   14.99577857 rev/day
Decay rate:       6.85e-06 rev/day^2
Epoch rev:           61103
Checksum:              280

Satellite: UARS
Catalog number: 21701
Epoch time:      05040.82756637
Element set:    0374
Inclination:      056.9812 deg
RA of node:       346.3019 deg
Eccentricity:    0.0007022
Arg of perigee:   099.1700 deg
Mean anomaly:     261.0131 deg
Mean motion:   15.03754861 rev/day
Decay rate:       2.88e-06 rev/day^2
Epoch rev:           73433
Checksum:              273

Satellite: PO-34
Catalog number: 25520
Epoch time:      05040.48104896
Element set:    0119
Inclination:      028.4602 deg
RA of node:       085.9622 deg
Eccentricity:    0.0005467
Arg of perigee:   271.5481 deg
Mean anomaly:     088.4488 deg
Mean motion:   15.16088615 rev/day
Decay rate:       9.31e-06 rev/day^2
Epoch rev:           34718
Checksum:              312

Satellite: ISS
Catalog number: 25544
Epoch time:      05040.86818061
Element set:    0782
Inclination:      051.6482 deg
RA of node:       191.9780 deg
Eccentricity:    0.0009531
Arg of perigee:   079.9465 deg
Mean anomaly:     079.6305 deg
Mean motion:   15.70727217 rev/day
Decay rate:     3.0818e-04 rev/day^2
Epoch rev:           35566
Checksum:              324

Satellite: OO-38
Catalog number: 26063
Epoch time:      05040.59476175
Element set:    0280
Inclination:      100.2270 deg
RA of node:       237.1775 deg
Eccentricity:    0.0037138
Arg of perigee:   054.7624 deg
Mean anomaly:     305.7027 deg
Mean motion:   14.35701085 rev/day
Decay rate:        8.9e-07 rev/day^2
Epoch rev:           26399
Checksum:              300

Satellite: NO-45
Catalog number: 26932
Epoch time:      05040.87889907
Element set:    0960
Inclination:      067.0554 deg
RA of node:       195.3200 deg
Eccentricity:    0.0008876
Arg of perigee:   271.9187 deg
Mean anomaly:     088.0928 deg
Mean motion:   14.29469153 rev/day
Decay rate:       -6.0e-08 rev/day^2
Epoch rev:           17560
Checksum:              339

/EX




----
Via the keps mailing list at AMSAT.ORG courtesy of AMSAT-NA.
To unsubscribe, send "unsubscribe keps" to Majordomo@amsat.org

--- ViaMAIL!/WC v1.60d
 * Origin: Chowdanet (401-331-0615) telnet://chowdanet.com  (1:323/120)